TimeCDT,TemperatureF,Dew PointF,Humidity,Sea Level PressureIn,VisibilityMPH,Wind Direction,Wind SpeedMPH,Gust SpeedMPH,PrecipitationIn,Events,Conditions,WindDirDegrees,DateUTC
12:53 AM,39.9,30.9,70,30.03,10.0,North,8.1,-,N/A,,Clear,350,2011-10-20 05:53:00
1:53 AM,37.9,30.9,76,30.02,10.0,North,8.1,-,N/A,,Clear,360,2011-10-20 06:53:00
2:53 AM,37.0,30.9,79,30.02,10.0,North,8.1,-,N/A,,Clear,350,2011-10-20 07:53:00
3:53 AM,37.0,30.9,79,30.01,10.0,North,9.2,-,N/A,,Clear,350,2011-10-20 08:53:00
4:53 AM,37.0,30.9,79,29.99,10.0,NNW,8.1,-,N/A,,Clear,340,2011-10-20 09:53:00
5:53 AM,36.0,30.9,82,29.99,10.0,North,6.9,-,N/A,,Clear,350,2011-10-20 10:53:00
6:53 AM,36.0,30.9,82,29.99,10.0,North,10.4,-,N/A,,Clear,350,2011-10-20 11:53:00
7:53 AM,36.0,30.9,82,29.99,10.0,NNW,10.4,-,N/A,,Clear,340,2011-10-20 12:53:00
8:53 AM,37.9,32.0,79,30.00,10.0,North,10.4,-,N/A,,Clear,350,2011-10-20 13:53:00
9:53 AM,39.9,33.1,77,30.00,10.0,North,9.2,-,N/A,,Clear,360,2011-10-20 14:53:00
10:53 AM,45.0,33.1,63,29.99,10.0,NNW,9.2,-,N/A,,Clear,330,2011-10-20 15:53:00
11:53 AM,48.0,33.1,56,29.97,10.0,WNW,6.9,-,N/A,,Clear,300,2011-10-20 16:53:00
12:53 PM,50.0,32.0,50,29.95,10.0,NNW,10.4,-,N/A,,Clear,340,2011-10-20 17:53:00
1:53 PM,51.1,33.1,50,29.94,10.0,NNW,13.8,-,N/A,,Clear,330,2011-10-20 18:53:00
3:53 PM,53.1,30.9,43,29.92,10.0,NNW,15.0,19.6,N/A,,Clear,330,2011-10-20 20:53:00
4:53 PM,53.1,28.9,40,29.93,10.0,North,12.7,-,N/A,,Clear,350,2011-10-20 21:53:00
5:53 PM,51.1,28.9,43,29.94,10.0,NW,10.4,-,N/A,,Clear,320,2011-10-20 22:53:00
7:53 PM,46.0,28.9,51,29.97,10.0,NNW,3.5,-,N/A,,Clear,340,2011-10-21 00:53:00
8:53 PM,44.1,28.9,55,29.98,10.0,Calm,Calm,-,N/A,,Clear,0,2011-10-21 01:53:00
9:53 PM,43.0,30.0,60,29.99,10.0,NW,4.6,-,N/A,,Clear,320,2011-10-21 02:53:00
10:53 PM,39.9,30.9,70,29.99,10.0,WNW,3.5,-,N/A,,Clear,290,2011-10-21 03:53:00
11:53 PM,39.0,30.9,73,30.00,10.0,WNW,4.6,-,N/A,,Clear,300,2011-10-21 04:53:00